Weather History for Lacon, IL

Change the Weather History Date:

Friday, October 5, 2012

  Actual Average (KPIA) Record (KPIA)
Temperature  
Mean Temperature 46 °F 58 °F  
Max Temperature 50 °F 69 °F 89 °F (1922)
Min Temperature 41 °F 47 °F 31 °F (1979)
Degree Days  
Heating Degree Days 20 8  
Month to date heating degree days 38  
Since 1 July heating degree days 128  
Cooling Degree Days 0 1  
Month to date cooling degree days 5  
Year to date cooling degree days 1029  
Moisture  
Dew Point 39 °F    
Average Humidity 74    
Maximum Humidity 95    
Minimum Humidity 59    
Precipitation  
Precipitation 0.01 in 0.09 in 1.62 in (1955)
Month to date precipitation 0.45  
Year to date precipitation 28.55  
Snow  
Snow 0.00 in 0.00 in T in (1932)
Month to date snowfall 0.0  
Since 1 July snowfall 0.0  
Since 1 September snowfall 0.0  
Snow Depth -    
Sea Level Pressure  
Sea Level Pressure 30.17 in    
Wind  
Wind Speed 4 mph (West)    
Max Wind Speed 13 mph    
Max Gust Speed 24 mph    
Visibility 10 miles    
Events Rain    
T = Trace of Precipitation, MM = Missing Value Source: NWS Daily Summary

Daily Weather History Graph

Daily Weather History Graph

Search for Another Location

Airport:

Trip Planner

Search our weather history database for the weather conditions in past years. The results will help you decide how hot, cold, wet, or windy it might be!

Date:

Astronomy

Oct. 05, 2012 Rise Set
Actual Time 6:58 AM CDT 6:32 PM CDT
Civil Twilight 6:31 AM CDT 6:59 PM CDT
Nautical Twilight 5:59 AM CDT 7:31 PM CDT
Astronomical Twilight 5:27 AM CDT 8:03 PM CDT
Moon 9:53 PM CDT (10/5) 12:08 PM CDT (10/5)
Length of Visible Light 12h 28m
Length of Day
11h 33m
Waning Gibbous, 74% of the Moon is Illuminated
Oct 5
Waning Gibbous
Oct 8
Last Quarter
Oct 15
New
Oct 21
First Quarter
Oct 29
Full

Hourly Weather History & Observations

Time (CDT) Temp. Windchill Dew Point Humidity Pressure Visibility Wind Dir Wind Speed Gust Speed Precip Events Conditions
12:15 AM 48.2 °F - 45.7 °F 91% 30.15 in 10.0 mi Calm Calm - N/A   Scattered Clouds
12:35 AM 47.1 °F - 45.3 °F 93% 30.16 in 10.0 mi Calm Calm - N/A   Clear
12:55 AM 46.9 °F - 45.5 °F 95% 30.16 in 10.0 mi Calm Calm - N/A   Clear
1:15 AM 48.6 °F - 45.5 °F 89% 30.21 in 10.0 mi WSW 6.9 mph - N/A   Clear
1:35 AM 49.3 °F - 44.6 °F 84% 30.21 in 10.0 mi WSW 4.6 mph - N/A   Scattered Clouds
1:55 AM 49.1 °F - 44.8 °F 85% 30.20 in 10.0 mi WNW 3.5 mph - N/A Rain Light Rain
2:15 AM 49.3 °F - 45.0 °F 85% 30.20 in 10.0 mi West 4.6 mph - N/A   Light Drizzle
2:35 AM 49.5 °F - 44.4 °F 83% 30.20 in 10.0 mi West 5.8 mph - N/A Rain Light Rain
2:55 AM 49.1 °F - 44.1 °F 83% 30.17 in 10.0 mi WNW 3.5 mph - 0.01 in Rain Light Rain
3:15 AM 49.1 °F - 43.5 °F 81% 30.18 in 10.0 mi Calm Calm - N/A   Scattered Clouds
3:35 AM 48.7 °F - 44.2 °F 84% 30.21 in 10.0 mi WSW 4.6 mph - N/A   Clear
3:55 AM 48.7 °F - 43.7 °F 83% 30.20 in 10.0 mi West 3.5 mph - N/A   Scattered Clouds
4:15 AM 48.7 °F - 43.2 °F 81% 30.18 in 10.0 mi WNW 4.6 mph - N/A   Overcast
4:35 AM 49.1 °F - 41.9 °F 76% 30.20 in 10.0 mi West 4.6 mph - N/A   Overcast
4:55 AM 48.4 °F - 41.5 °F 77% 30.21 in 10.0 mi West 6.9 mph - N/A   Mostly Cloudy
5:15 AM 48.2 °F - 40.6 °F 75% 30.20 in 10.0 mi WNW 4.6 mph - N/A   Mostly Cloudy
5:35 AM 47.8 °F - 40.3 °F 75% 30.18 in 10.0 mi WNW 4.6 mph - N/A   Scattered Clouds
5:55 AM 47.3 °F - 40.1 °F 76% 30.18 in 10.0 mi NW 4.6 mph - N/A   Clear
6:15 AM 46.4 °F 43.5 °F 39.2 °F 76% 30.19 in 10.0 mi NW 5.8 mph - N/A   Clear
6:35 AM 46.2 °F 44.1 °F 38.7 °F 75% 30.19 in 10.0 mi WNW 4.6 mph - N/A   Clear
6:55 AM 46.4 °F 45.2 °F 40.3 °F 79% 30.19 in 10.0 mi West 3.5 mph - N/A   Clear
7:15 AM 46.4 °F 44.3 °F 39.7 °F 78% 30.20 in 10.0 mi West 4.6 mph - N/A   Clear
7:35 AM 46.0 °F - 40.1 °F 80% 30.20 in 10.0 mi Calm Calm - N/A   Mostly Cloudy
7:55 AM 46.6 °F - 39.6 °F 77% 30.20 in 10.0 mi WNW 3.5 mph - N/A   Scattered Clouds
8:15 AM 46.6 °F - 38.3 °F 73% 30.20 in 10.0 mi West 3.5 mph - N/A   Clear
8:35 AM 46.6 °F - 38.7 °F 74% 30.21 in 10.0 mi West 3.5 mph - N/A   Scattered Clouds
8:55 AM 46.9 °F - 37.9 °F 71% 30.20 in 10.0 mi West 3.5 mph - N/A   Scattered Clouds
9:15 AM 47.7 °F - 38.1 °F 70% 30.20 in 10.0 mi WNW 3.5 mph - N/A   Scattered Clouds
9:35 AM 47.3 °F - 38.7 °F 72% 30.20 in 10.0 mi WNW 4.6 mph - N/A   Scattered Clouds
9:55 AM 47.8 °F - 38.5 °F 70% 30.20 in 10.0 mi WNW 4.6 mph - N/A   Scattered Clouds
10:15 AM 48.0 °F - 37.8 °F 68% 30.21 in 10.0 mi WSW 6.9 mph - N/A   Mostly Cloudy
10:35 AM 48.2 °F - 37.6 °F 67% 30.22 in 10.0 mi West 5.8 mph - N/A   Mostly Cloudy
10:55 AM 48.0 °F - 38.8 °F 71% 30.21 in 10.0 mi WSW 4.6 mph - N/A Rain Light Rain
11:15 AM 48.2 °F - 39.2 °F 71% 30.19 in 10.0 mi West 4.6 mph - N/A   Mostly Cloudy
11:35 AM 48.2 °F - 39.4 °F 72% 30.19 in 10.0 mi West 6.9 mph - N/A   Overcast
11:55 AM 48.7 °F - 38.5 °F 68% 30.19 in 10.0 mi West 6.9 mph - N/A   Overcast
12:15 PM 49.3 °F - 38.7 °F 67% 30.18 in 10.0 mi West 6.9 mph - N/A   Scattered Clouds
12:35 PM 48.6 °F - 38.7 °F 69% 30.17 in 10.0 mi West 6.9 mph - N/A   Mostly Cloudy
12:55 PM 48.9 °F - 37.9 °F 66% 30.16 in 10.0 mi West 6.9 mph - N/A   Scattered Clouds
1:35 PM 48.7 °F - 36.9 °F 64% 30.14 in 10.0 mi West 3.5 mph - N/A   Scattered Clouds
1:55 PM 49.1 °F - 36.7 °F 62% 30.16 in 10.0 mi West 6.9 mph - N/A   Mostly Cloudy
2:15 PM 49.1 °F - 37.0 °F 63% 30.16 in 10.0 mi West 5.8 mph - N/A   Mostly Cloudy
2:35 PM 49.1 °F - 37.2 °F 64% 30.16 in 10.0 mi West 6.9 mph - N/A   Scattered Clouds
2:55 PM 49.5 °F - 36.9 °F 62% 30.15 in 10.0 mi West 6.9 mph - N/A   Scattered Clouds
3:15 PM 49.6 °F - 37.8 °F 64% 30.15 in 10.0 mi West 8.1 mph - N/A   Scattered Clouds
3:35 PM 49.6 °F - 37.9 °F 64% 30.14 in 10.0 mi West 5.8 mph - N/A   Mostly Cloudy
3:55 PM 49.6 °F - 39.6 °F 68% 30.14 in 10.0 mi West 3.5 mph - N/A Rain Light Rain
4:15 PM 50.2 °F - 36.5 °F 59% 30.14 in 10.0 mi West 9.2 mph 18.4 mph N/A   Mostly Cloudy
4:35 PM 46.6 °F - 37.9 °F 72% 30.16 in 10.0 mi WNW 12.7 mph 24.2 mph N/A   Overcast
4:55 PM 46.4 °F 43.5 °F 38.3 °F 73% 30.15 in 10.0 mi West 5.8 mph - N/A   Light Drizzle
5:15 PM 46.4 °F 44.3 °F 38.1 °F 73% 30.16 in 10.0 mi West 4.6 mph - N/A   Overcast
5:35 PM 46.4 °F 44.3 °F 38.5 °F 74% 30.15 in 10.0 mi WSW 4.6 mph - N/A   Mostly Cloudy
5:55 PM 46.6 °F - 37.9 °F 72% 30.14 in 10.0 mi SW 4.6 mph - N/A   Mostly Cloudy
6:15 PM 46.4 °F 44.3 °F 38.1 °F 73% 30.14 in 10.0 mi SW 4.6 mph - N/A   Mostly Cloudy
6:35 PM 46.8 °F - 37.4 °F 70% 30.12 in 10.0 mi SW 6.9 mph - N/A   Overcast
6:55 PM 47.3 °F - 36.9 °F 67% 30.13 in 10.0 mi West 5.8 mph - N/A   Overcast
7:15 PM 47.3 °F - 35.1 °F 62% 30.13 in 10.0 mi WSW 8.1 mph - N/A   Overcast
7:35 PM 46.9 °F - 35.1 °F 63% 30.13 in 10.0 mi WSW 6.9 mph - N/A   Overcast
7:55 PM 46.8 °F - 35.6 °F 65% 30.13 in 10.0 mi WSW 5.8 mph - N/A   Overcast
8:15 PM 46.4 °F 43.5 °F 35.8 °F 67% 30.14 in 10.0 mi West 5.8 mph - N/A   Overcast
8:35 PM 45.9 °F 42.3 °F 36.0 °F 68% 30.14 in 10.0 mi WSW 6.9 mph - N/A   Mostly Cloudy
8:55 PM 45.9 °F 42.9 °F 36.7 °F 70% 30.15 in 10.0 mi WSW 5.8 mph - N/A   Overcast
9:15 PM 44.8 °F 41.6 °F 36.7 °F 73% 30.15 in 10.0 mi WSW 5.8 mph - N/A   Scattered Clouds
9:35 PM 44.1 °F 40.8 °F 36.1 °F 74% 30.14 in 10.0 mi WSW 5.8 mph - N/A   Clear
9:55 PM 43.3 °F 40.7 °F 35.4 °F 74% 30.14 in 10.0 mi SW 4.6 mph - N/A   Clear
10:15 PM 43.2 °F 39.7 °F 34.9 °F 73% 30.15 in 10.0 mi SW 5.8 mph - N/A   Clear
10:35 PM 42.6 °F 39.9 °F 35.4 °F 76% 30.15 in 10.0 mi SW 4.6 mph - N/A   Clear
10:55 PM 41.7 °F 38.8 °F 35.6 °F 79% 30.15 in 10.0 mi SW 4.6 mph - N/A   Clear
11:15 PM 41.0 °F 39.0 °F 35.6 °F 81% 30.16 in 10.0 mi SW 3.5 mph - N/A   Clear
11:35 PM 42.1 °F - 34.7 °F 75% 30.15 in 10.0 mi Calm Calm - N/A   Clear
11:55 PM 41.2 °F 39.2 °F 34.3 °F 77% 30.15 in 10.0 mi WSW 3.5 mph - N/A   Clear